www.pogodaiklimat.ru

Погода и климат >> Архив погоды >> Южная Африка >> Коматидрааи


ПОГОДА в Коматидрааи

  • Прогноз погоды в Коматидрааи
  • Монитор погоды в Коматидрааи

АРХИВ ПОГОДЫ в Коматидрааи

Время (UTC), дата Ветер
(напр.,м/с)
 
Видим.   Явления Облачность Т
(С)
Тd
(С)
f
(%)
Тe
(С)
Тes
(С)
Комфортность P
(гПа)
Po
(гПа)
Тmin
(С)
Tmax
(С)
R
(мм)
R24
(мм)
S
(см)
06 20.03 С 2 н/о н/о +24.4 +21.3 83 +31 +31 очень
душно
990.1 +20.3
09 20.03 СЗ 3 н/о н/о +31.3 +22.2 59 +40 +40 очень
душно
990.1 +20.3 +31.3
12 20.03 С 3 н/о н/о +33.8 +21.8 50 +42 +42 опасность
перегрева
986.8 +20.3 +34.2
03 21.03 ЮВ 1 н/о н/о +22.5 +20.4 88 +29 +29 очень
душно
990.4 +22.4 +34.2
06 21.03 В 1 н/о н/о +25.6 +22.5 83 +34 +34 очень
душно
992.7 +22.1
09 21.03 штиль 0 н/о н/о +29.3 +22.4 66 +38 +38 очень
душно
993.0 +22.1 +29.3
09 22.03 Ю 3 н/о н/о +26.8 +21.4 72 +34 +34 очень
душно
997.7 +20.8 +26.8
12 22.03 Ю 2 н/о н/о +27.8 +21.4 68 +35 +35 очень
душно
996.0 +20.8 +27.8 2
15 22.03 ЮВ 2 н/о н/о +23.6 +20.0 80 +29 +29 душно 995.9 +23.6 +29.1
03 23.03 Ю 2 н/о н/о +20.7 +19.5 93 +26 +26 душно 997.7 +20.7 +29.1
12 23.03 ЮЗ 2 н/о н/о +26.8 +20.0 66 +33 +33 очень
душно
996.9 +20.7 +27.3 0.2
15 23.03 Ю 2 н/о н/о +25.3 +22.2 83 +33 +33 очень
душно
996.6 +22.7 +27.9
18 23.03 ЮВ 1 н/о н/о +22.2 +20.1 88 +28 +28 душно 997.6 +22.2 +27.9 7
21 23.03 ЮЗ 1 н/о н/о +21.6 +20.0 91 +27 +27 душно 997.9 +21.6 +27.9
00 24.03 ЮЗ 1 н/о н/о +21.6 +20.4 93 +27 +27 душно 996.9 +21.3 +27.9 7
03 24.03 Ю 1 н/о н/о +21.4 +20.2 93 +27 +27 душно 996.8 +21.1 +27.9
06 24.03 ЮВ 1 н/о н/о +22.1 +20.9 93 +29 +29 очень
душно
997.6 +21.1 14
09 24.03 СЗ 2 н/о н/о +26.7 +20.8 70 +33 +33 очень
душно
996.0 +21.1 +26.7
12 24.03 СЗ 2 н/о н/о +29.0 +20.0 58 +35 +35 очень
душно
993.3 +21.1 +29.0 0.2
15 24.03 СВ 2 н/о н/о +28.3 +20.2 62 +35 +35 очень
душно
991.5 +28.3 +29.5
18 24.03 штиль 0 н/о н/о +23.9 +20.1 79 +29 +29 душно 991.5 +23.9 +29.5 0.2
21 24.03 Ю 1 н/о н/о +22.5 +19.5 83 +29 +29 очень
душно
992.5 +22.5 +29.5
00 25.03 ЮЗ 1 н/о н/о +21.0 +19.1 89 +27 +27 душно 992.4 +21.0 +29.5 0.2
03 25.03 СВ 1 н/о н/о +20.3 +18.8 91 +25 +25 комфорт 991.4 +20.3 +29.5
06 25.03 С 1 н/о н/о +22.5 +20.6 89 +29 +29 очень
душно
991.5 +19.7 0.2
09 25.03 СЗ 2 н/о н/о +29.3 +21.4 62 +37 +37 очень
душно
989.3 +19.7 +29.3
12 25.03 СВ 3 н/о н/о +32.3 +19.4 47 +38 +38 очень
душно
986.4 +19.7 +32.6
15 25.03 Ю 2 н/о н/о +32.4 +21.8 54 +41 +41 опасность
перегрева
986.0 +32.0 +32.9
18 25.03 ЮВ 2 н/о н/о +25.9 +20.7 73 +32 +32 очень
душно
989.2 +25.9 +32.9
21 25.03 ЮВ 2 н/о н/о +23.9 +19.4 76 +29 +29 душно 991.2 +23.9 +32.9
00 26.03 штиль 0 н/о н/о +23.7 +20.1 80 +29 +29 душно 991.7 +23.6 +32.9
03 26.03 Ю 2 н/о н/о +22.5 +19.9 85 +29 +29 очень
душно
992.2 +22.5 +32.9
06 26.03 Ю 3 н/о н/о +23.4 +19.4 78 +30 +30 очень
душно
995.2 +22.1
09 26.03 Ю 3 н/о н/о +25.3 +19.3 69 +30 +30 душно 996.6 +22.1 +25.8
12 26.03 Ю 4 н/о н/о +24.6 +19.7 74 +30 +30 очень
душно
996.6 +22.1 +25.8
15 26.03 Ю 2 н/о н/о +23.3 +19.5 79 +30 +30 очень
душно
996.8 +23.1 +25.8
18 26.03 Ю 2 н/о н/о +21.7 +19.4 87 +27 +27 душно 998.7 +21.7 +25.8 1

 

Местоположение метеостанции Коматидрааи (Южная Африка): широта -25.51 долгота 31.90 высота над уровнем моря 183 м.

В архиве по умолчанию представлена погода в Коматидрааи за последнюю неделю. Архивные данные за месяц целиком и за предыдущие месяцы, начиная с января 2011 года, Вы можете получить, выбрав интересующий диапазон дат из раскрывающегося списка и нажав кнопку "Ввод!".


*Определитесь, кто Вы:
робот инопланетянин человек

Внимание! Время в таблицах - всемирное. Для получения местного времени необходимо прибавить поправку, которая равна 2 ч.

Смотрите также архив погоды в соседних городах и на ближайших метеорологических станциях:

Погода в Майиване (Свазиленд) (58 км)
Погода в Скукузе (Южная Африка) (66 км)
Погода в Мапуту (Мозамбик) (81 км)
Погода в Пиггс-Пике (Свазиленд) (83 км)
Погода в Чангалане (Мозамбик) (90 км)
Погода в Мбомбеле (Южная Африка) (98 км)
Погода в Ситеки (Свазиленд) (102 км)
Погода в Граскопе (Южная Африка) (124 км)
Погода в Граскоп-Скуле (Южная Африка) (126 км)
Погода в Манзини (Свазиленд) (128 км)

Пояснения к столбцам:

Ветер - указаны скорость ветра в м/с - средняя за 10 мин, порывы в срок и между сроками (в фигурных скобках) и направление, откуда дует ветер: С - северный, СВ - северо-восточный, В - восточный, ЮВ - юго-восточный, Ю - южный, ЮЗ - юго-западный, З - западный, СЗ - северо-западный.
Видимость - горизонтальная дальность видимости в метрах или километрах. При видимости от 1 до 10 км при отсутствии осадков обычно наблюдается дымка, при ухудшении видимости до 1 км и менее - туман. В сухую погоду видимость может ухудшаться дымом, пылью или мглою.
Явления - указаны атмосферные явления, наблюдавшиеся в срок или в последний час перед сроком; фигурными скобками обозначены явления, наблюдавшиеся между сроками (за 1-3 часа до срока); квадратными скобками обозначены град или гололедные отложения с указанием их диаметра в мм.
Облачность - указаны через наклонную черту общая и нижняя облачность в баллах и высота нижней границы облаков в метрах; квадратными скобками обозначены формы облаков: Ci - перистые, Cs - перисто-слоистые, Cc - перисто-кучевые, Ac - высококучевые, As - высокослоистые, Sc - слоисто-кучевые, Ns - слоисто-дождевые, Cu - кучевые, Cb - кучево-дождевые. Подробнее классификацию облаков см. в Атласе облаков (PDF).
T - Температура воздуха - температура, измеренная на высоте 2 м над землей.
Td - Температура точки росы - температура, при понижении до которой содержащийся в воздухе водяной пар достигнет насыщения.
f - Относительная влажность воздуха - влажноcть воздуха, измеренная на высоте 2 м над землей.
Te - Эффективная температура - температура, которую ощущает одетый по сезону человек в тени. Характеристика душности погоды. При расчете учитывается влияние влажности воздуха и скорости ветра на теплоощущения человека.
Tes - Эффективная температура на солнце - температура, которую ощущает человек, с поправкой на солнечный нагрев. Характеристика знойности погоды. Зависит от высоты солнца над горизонтом, облачности и скорости ветра. Ночью, в пасмурную погоду, а также при ветре 12 м/с и более поправка равна нулю.
P - Атмосферное давление - приведенное к уровню моря атмосферное давление.
Po - Атмосферное давление - измеренное на уровне метеостанции атмосферное давление.
Tmin - Минимальная температура - минимум температуры воздуха на высоте 2 м над землей.
Tmax - Максимальная температура - максимум температуры воздуха на высоте 2 м над землей.
R - Количество осадков - Количество выпавших осадков за период времени, мм. При наведении курсора мыши на число - период времени, за который выпало указанное количество осадков.
R24 - Количество осадков - Количество выпавших осадков за 24 часа, мм.
S - Снежный покров - Высота снежного покрова, см. При наведении курсора мыши на число - состояние снежного покрова и степень покрытия местности в баллах.